Weather reports worldwide

Advertisment
Cap Corse, France (7785): temperature & dewpoint: 10.12.2018 01:00:00 - 16.12.2018 01:00:00 (CET)Cap Corse, France (7785): wind speed & gusts: 10.12.2018 01:00:00 - 16.12.2018 01:00:00 (CET)Cap Corse, France (7785): wind direction: 10.12.2018 01:00:00 - 16.12.2018 01:00:00 (CET)Cap Corse, France (7785): reduced air pressure: 10.12.2018 01:00:00 - 16.12.2018 01:00:00 (CET)Cap Corse, France (7785): visibility: 10.12.2018 01:00:00 - 16.12.2018 01:00:00 (CET)Cap Corse, France (7785): precipitation: 10.12.2018 01:00:00 - 16.12.2018 01:00:00 (CET)
Date & Time tt [°C] td [°C] ff [km/h] ff [kn] fx [km/h] fx [kn] dd ppp [hPa] vv [km] rr [mm]
16.12.2018 01:00:00 6,6 -0,2 15 8 18 10 SE 1020,0 - 0,0
16.12.2018 00:00:00 6,3 -0,5 10 5 35 19 S 1020,4 - 0,0
15.12.2018 23:00:00 7,4 -0,1 26 14 34 18 SSE 1020,2 - 0,0
15.12.2018 22:00:00 7,3 -0,2 24 13 36 19 SE 1020,3 - 0,0
15.12.2018 21:00:00 7,2 -0,1 25 13 31 17 SE 1020,6 - 0,0
15.12.2018 20:00:00 6,7 -0,1 22 12 27 14 SE 1020,5 - 0,0
15.12.2018 19:00:00 6,0 -0,3 18 10 23 13 SE 1020,3 - 0,0
15.12.2018 18:00:00 6,1 -0,2 16 8 19 10 ESE 1020,3 - 0,0
15.12.2018 17:00:00 6,1 -0,2 15 8 20 11 ESE 1019,6 - 0,0
15.12.2018 16:00:00 6,9 -0,3 8 4 16 8 ESE 1019,4 15 0,0
15.12.2018 15:00:00 8,8 -0,3 9 5 25 13 E 1019,1 - 0,0
15.12.2018 14:00:00 9,6 0,2 11 6 28 15 E 1018,7 - 0,0
15.12.2018 13:00:00 9,8 0,7 13 7 26 14 E 1018,8 15 0,0
15.12.2018 12:00:00 9,4 0,5 12 6 25 13 E 1018,9 - 0,0
15.12.2018 11:00:00 10,0 1,4 15 8 28 15 E 1019,0 - 0,0
15.12.2018 10:00:00 8,4 0,4 16 8 29 16 ESE 1019,1 15 0,0
15.12.2018 09:00:00 7,1 0,3 22 12 34 18 ESE 1018,5 - 0,0
15.12.2018 08:00:00 7,0 0,6 23 13 32 18 SE 1017,7 - 0,0
15.12.2018 07:00:00 7,6 0,6 20 11 29 16 ESE 1017,1 12 0,0
15.12.2018 06:00:00 7,8 0,7 19 10 29 15 SE 1016,8 - 0,0
15.12.2018 05:00:00 7,6 0,6 22 12 30 16 ESE 1016,5 - 0,0
15.12.2018 04:00:00 8,0 0,5 18 10 34 18 ESE 1016,3 12 0,0
15.12.2018 03:00:00 7,8 0,5 18 10 31 17 ESE 1016,1 - 0,0
15.12.2018 02:00:00 7,5 0,5 22 12 35 19 E 1015,8 - 0,0
15.12.2018 01:00:00 8,2 0,7 24 13 37 20 E 1015,3 - 0,0
15.12.2018 00:00:00 7,9 1,3 20 11 36 19 E 1015,6 - 0,0
14.12.2018 23:00:00 7,8 1,4 22 12 39 21 E 1015,3 - 0,0
14.12.2018 22:00:00 8,3 1,4 18 10 28 15 ESE 1015,0 - 0,0
14.12.2018 21:00:00 9,1 2,0 16 9 24 13 ESE 1014,7 - 0,0
14.12.2018 20:00:00 8,4 2,0 13 7 19 10 ESE 1014,5 - 0,0
14.12.2018 19:00:00 8,7 1,8 15 8 21 11 E 1013,9 12 0,0
14.12.2018 18:00:00 7,8 1,2 13 7 34 19 E 1013,4 - 0,0
14.12.2018 17:00:00 9,4 1,1 18 10 33 18 NE 1013,0 - 0,0
14.12.2018 16:00:00 9,6 2,2 19 10 45 24 ENE 1012,5 20 0,0
14.12.2018 15:00:00 10,0 2,3 27 15 44 24 ENE 1012,0 - 0,0
14.12.2018 14:00:00 10,0 1,1 31 17 53 29 ENE 1011,8 - 0,0
14.12.2018 13:00:00 10,3 0,9 36 19 60 32 ENE 1012,0 15 0,0
14.12.2018 12:00:00 9,8 2,2 45 24 66 35 ENE 1011,7 - 0,0
14.12.2018 11:00:00 9,6 2,2 42 23 61 33 E 1011,8 - 0,0
14.12.2018 10:00:00 9,5 2,6 36 20 57 31 E 1011,5 15 0,0
14.12.2018 09:00:00 9,1 2,6 41 22 62 33 E 1011,0 - 0,0
14.12.2018 08:00:00 8,6 3,4 35 19 56 31 E 1010,1 - 0,0
14.12.2018 07:00:00 8,3 3,7 35 19 51 28 E 1009,9 10 0,0
14.12.2018 06:00:00 8,1 3,7 36 19 51 27 E 1009,6 - 0,4
14.12.2018 05:00:00 8,4 3,4 36 19 53 29 E 1009,9 - 0,0
14.12.2018 04:00:00 8,5 3,5 41 22 61 33 ENE 1009,8 10 0,2
14.12.2018 03:00:00 8,4 3,6 39 21 59 32 E 1010,1 - 0,0
14.12.2018 02:00:00 8,5 3,3 42 23 62 33 E 1010,5 - 0,0
14.12.2018 01:00:00 8,4 3,4 37 20 61 33 E 1010,5 - 0,2
14.12.2018 00:00:00 7,9 3,4 39 21 59 32 E 1010,7 - 0,4
13.12.2018 23:00:00 8,6 3,2 41 22 62 34 E 1010,5 - 0,0
13.12.2018 22:00:00 8,6 3,4 43 23 63 34 E 1010,1 - 0,2
13.12.2018 21:00:00 9,0 3,2 46 25 67 36 E 1010,3 - 0,0
13.12.2018 20:00:00 8,6 3,0 45 24 66 35 E 1010,3 - 0,0
13.12.2018 19:00:00 9,2 3,2 39 21 62 33 E 1010,3 12 0,0
13.12.2018 18:00:00 8,8 3,4 41 22 58 31 E 1010,2 - 0,0
13.12.2018 17:00:00 9,2 3,4 32 17 49 26 E 1010,4 - 0,0
13.12.2018 16:00:00 8,8 3,8 27 15 41 22 E 1010,8 15 0,0
13.12.2018 15:00:00 8,4 3,2 27 15 45 25 E 1010,8 - 0,0
13.12.2018 14:00:00 8,4 3,2 29 16 50 27 ENE 1011,2 - 0,0
13.12.2018 13:00:00 8,8 4,8 29 16 51 28 ENE 1011,2 15 0,0
13.12.2018 12:00:00 8,8 5,2 30 16 46 25 E 1011,8 - 0,0
13.12.2018 11:00:00 8,7 5,1 27 15 42 23 E 1012,6 - 0,0
13.12.2018 10:00:00 7,9 5,0 21 11 37 20 E 1012,9 15 0,0
13.12.2018 09:00:00 7,4 5,0 23 12 50 27 E 1013,2 - 1,2
13.12.2018 08:00:00 8,3 4,7 38 20 57 31 E 1012,8 - 0,0
13.12.2018 07:00:00 7,8 4,4 28 15 48 26 ESE 1012,9 15 0,0
13.12.2018 06:00:00 7,6 4,4 29 15 55 30 ESE 1012,7 - 0,0
13.12.2018 05:00:00 7,6 5,1 30 16 50 27 ESE 1013,1 - 0,4
13.12.2018 04:00:00 7,9 6,0 27 15 52 28 ESE 1013,8 10 3,2
13.12.2018 03:00:00 8,3 6,3 31 17 55 30 ESE 1013,8 - 4,0
13.12.2018 02:00:00 9,5 6,4 22 12 60 33 ESE 1013,7 - 4,5
13.12.2018 01:00:00 10,5 5,7 41 22 61 33 SSE 1013,4 - 0,0
13.12.2018 00:00:00 10,7 5,0 39 21 55 30 SE 1013,9 - 0,0
12.12.2018 23:00:00 10,5 5,3 38 20 62 34 SSE 1014,4 - 0,0
12.12.2018 22:00:00 10,6 5,1 39 21 55 30 SSE 1014,6 - 0,0
12.12.2018 21:00:00 10,8 4,5 36 19 51 28 SE 1014,9 - 0,0
12.12.2018 20:00:00 11,2 4,4 39 21 55 30 SSE 1015,4 - 0,0
12.12.2018 19:00:00 10,8 4,5 27 14 54 29 SSE 1015,6 15 0,0
12.12.2018 18:00:00 10,6 4,9 39 21 51 28 SSE 1015,6 - 0,0
12.12.2018 17:00:00 10,8 5,3 37 20 51 27 SE 1016,0 - 0,0
12.12.2018 16:00:00 11,0 2,6 31 17 48 26 SE 1016,4 13 0,0
12.12.2018 15:00:00 11,4 4,4 28 15 42 23 SE 1016,1 - 0,0
12.12.2018 14:00:00 12,4 5,3 26 14 45 24 SSE 1016,5 - 0,0
12.12.2018 13:00:00 11,8 4,5 29 15 39 21 SSE 1017,2 15 0,0
12.12.2018 12:00:00 12,3 4,8 25 14 43 23 SE 1017,8 - 0,0
12.12.2018 11:00:00 12,6 4,8 33 18 46 25 SE 1018,1 - 0,0
12.12.2018 10:00:00 12,5 5,9 18 10 37 20 SE 1018,2 20 0,0
12.12.2018 09:00:00 11,7 2,4 10 5 13 7 SW 1017,9 - 0,0
12.12.2018 08:00:00 10,9 0,6 4 2 16 9 S 1017,7 - 0,0
12.12.2018 07:00:00 10,9 -0,6 6 3 17 9 S 1017,6 15 0,0
12.12.2018 06:00:00 10,7 -0,2 13 7 17 9 SW 1017,5 - 0,0
12.12.2018 05:00:00 11,0 -0,8 16 9 24 13 S 1017,4 - 0,0
12.12.2018 04:00:00 10,1 0,1 14 7 22 12 S 1017,8 10 0,0
12.12.2018 03:00:00 10,4 -1,3 13 7 30 16 S 1018,2 - 0,0
12.12.2018 02:00:00 10,6 -0,9 22 12 28 15 SSE 1018,1 - 0,0
12.12.2018 01:00:00 10,0 -2,3 17 9 26 14 SSE 1018,4 - 0,0
12.12.2018 00:00:00 10,1 -2,6 22 12 26 14 SSE 1018,6 - 0,0
11.12.2018 23:00:00 10,6 -2,8 18 10 26 14 SE 1018,7 - 0,0
11.12.2018 22:00:00 10,7 -2,4 15 8 24 13 ESE 1018,7 - 0,0
11.12.2018 21:00:00 11,1 -2,4 18 10 26 14 ESE 1018,5 - 0,0
11.12.2018 20:00:00 11,1 -3,1 20 11 28 15 ESE 1018,3 - 0,0
11.12.2018 19:00:00 11,0 -3,2 22 12 32 18 ESE 1018,2 15 0,0
11.12.2018 18:00:00 10,6 -3,9 21 11 30 16 ESE 1017,8 - 0,0
11.12.2018 17:00:00 11,3 -4,0 21 12 32 17 ESE 1017,8 - 0,0
11.12.2018 16:00:00 12,2 -4,0 18 10 30 16 E 1017,6 15 0,0
11.12.2018 15:00:00 13,6 -3,2 20 11 30 16 ENE 1017,7 - 0,0
11.12.2018 14:00:00 14,2 0,4 19 10 29 16 ENE 1017,7 - 0,0
11.12.2018 13:00:00 14,6 0,1 18 10 29 15 ENE 1018,1 15 0,0
11.12.2018 12:00:00 14,7 0,9 22 12 34 18 E 1018,2 - 0,0
11.12.2018 11:00:00 15,0 5,8 0 0 7 4 N 1018,8 - 0,0
11.12.2018 10:00:00 13,4 6,7 8 4 15 8 SW 1018,9 20 0,0
11.12.2018 09:00:00 11,3 6,6 14 8 22 12 SW 1018,7 - 0,0
11.12.2018 08:00:00 10,0 4,1 10 6 16 9 WSW 1018,2 - 0,0
11.12.2018 07:00:00 10,1 4,5 10 5 19 10 WSW 1017,9 - 0,0
11.12.2018 06:00:00 10,8 4,5 4 2 17 9 SW 1017,8 - 0,0
11.12.2018 05:00:00 11,1 5,2 13 7 23 12 WSW 1017,7 - 0,0
11.12.2018 04:00:00 11,2 5,5 14 8 18 10 W 1017,8 12 0,0
11.12.2018 03:00:00 11,6 4,6 5 3 12 6 WSW 1017,9 - 0,0
11.12.2018 02:00:00 11,1 3,1 8 4 22 12 W 1018,2 - 0,0
11.12.2018 01:00:00 12,0 4,7 22 12 37 20 WSW 1018,4 - 0,0
11.12.2018 00:00:00 11,2 3,0 13 7 27 14 WSW 1018,8 - 0,0
10.12.2018 23:00:00 11,5 2,0 4 2 21 11 E 1019,4 - 0,0
10.12.2018 22:00:00 13,3 2,2 16 9 26 14 N 1019,3 - 0,0
10.12.2018 21:00:00 14,5 3,6 21 12 36 20 NW 1019,2 - 0,0
10.12.2018 20:00:00 14,6 1,5 27 14 39 21 NNW 1019,0 - 0,0
10.12.2018 19:00:00 14,1 1,4 30 16 42 23 NNW 1018,8 - 0,0
10.12.2018 18:00:00 14,5 1,0 32 17 40 22 N 1018,5 - 0,0
10.12.2018 17:00:00 14,4 2,9 30 16 45 25 N 1018,1 - 0,0
10.12.2018 16:00:00 14,7 2,9 32 17 49 26 NNW 1018,1 20 0,0
10.12.2018 15:00:00 15,2 2,7 39 21 49 27 N 1017,9 - 0,0
10.12.2018 14:00:00 15,6 2,0 32 18 49 26 NNW 1018,0 - 0,0
10.12.2018 13:00:00 16,0 1,3 39 21 50 27 NW 1017,7 20 0,0
10.12.2018 12:00:00 16,2 3,3 28 15 42 23 WNW 1018,1 - 0,0
10.12.2018 11:00:00 16,2 3,9 37 20 54 29 NNW 1018,1 - 0,0
10.12.2018 10:00:00 15,9 4,9 35 19 48 26 WNW 1017,5 20 0,0
10.12.2018 09:00:00 15,3 4,0 39 21 56 30 WNW 1016,4 - 0,0
10.12.2018 08:00:00 15,4 3,5 46 25 61 33 NW 1015,6 - 0,0
10.12.2018 07:00:00 14,5 8,4 35 19 67 36 W 1015,7 12 0,0
10.12.2018 06:00:00 14,5 8,2 55 30 81 44 W 1014,0 - 0,0
10.12.2018 05:00:00 14,3 7,3 49 26 98 53 WSW 1013,8 - 0,0
10.12.2018 04:00:00 14,4 7,2 49 26 95 51 WSW 1013,9 8 0,0
10.12.2018 03:00:00 14,7 5,7 52 28 114 62 WSW 1013,9 - 0,0
10.12.2018 02:00:00 14,5 7,5 54 29 94 51 W 1014,0 - 0,0
10.12.2018 01:00:00 14,5 7,3 53 28 79 43 WSW 1014,0 - 0,0

tt = temperature
td = dewpoint
ff = wind speed
fx = gusts
dd = wind direction
ppp = reduced air pressure
vv = visibility
rr = precipitation

Next stations